Location: Plainartige
(45.6866°N, 1.7993°E)
Time: 06:42:36
(UTC+00:00)

deb r/b Ablestar - Pass Details

Date: 02 October 2021
Orbit: 844 x 997 km, 67.7° (Epoch: 25 October)

Event Time Altitude Azimuth Distance (km) Brightness Sun altitude
Rises 21:11:49 0° 318° (NW) 3,421 ? -37.0°
Reaches altitude 10° 21:14:39 10° 305° (NW) 2,493 ? -37.4°
Enters shadow 21:18:11 23° 269° (W) 1,741 ? -37.8°
